timestamp,wind_dir_avg,wind_spd_avg,wind_spd_max_dir,wind_spd_gust,battery_voltage,lat,long
2023-10-14 00:04:01+00:00,92.0,4.48,107.0,7.36,12.41,47.59359,-54.27349
2023-10-14 00:14:01+00:00,95.0,4.37,95.0,6.77,12.41,47.59359,-54.27349
2023-10-14 00:24:01+00:00,102.0,4.78,90.0,9.37,12.41,47.59359,-54.27349
2023-10-14 00:34:01+00:00,103.0,4.79,137.0,7.46,12.41,47.59359,-54.27349
2023-10-14 00:44:01+00:00,89.0,5.7,102.0,8.81,12.41,47.59359,-54.27349
2023-10-14 00:54:01+00:00,95.0,4.58,45.0,7.39,12.41,47.59359,-54.27349
2023-10-14 01:04:01+00:00,96.0,4.15,124.0,7.58,12.41,47.59359,-54.27349
2023-10-14 01:14:00+00:00,104.0,4.97,139.0,8.39,12.41,47.59359,-54.27349
2023-10-14 01:24:00+00:00,89.0,5.48,73.0,8.85,12.41,47.59359,-54.27349
2023-10-14 01:34:00+00:00,98.0,5.56,110.0,8.36,12.41,47.59359,-54.27349
2023-10-14 01:44:00+00:00,96.0,5.46,104.0,9.14,12.41,47.59359,-54.27349
2023-10-14 01:54:00+00:00,90.0,5.67,102.0,9.9,12.41,47.59359,-54.27349
2023-10-14 02:04:00+00:00,105.0,5.68,114.0,9.98,12.41,47.59359,-54.27349
2023-10-14 02:14:01+00:00,95.0,4.45,61.0,6.85,12.41,47.59359,-54.27349
2023-10-14 02:24:01+00:00,93.0,6.53,96.0,10.52,12.41,47.59359,-54.27349
2023-10-14 02:34:01+00:00,91.0,5.41,104.0,8.33,12.41,47.59359,-54.27349
2023-10-14 02:44:01+00:00,90.0,4.61,94.0,7.12,12.41,47.59359,-54.27349
2023-10-14 02:54:01+00:00,88.0,4.83,72.0,9.17,12.41,47.59359,-54.27349
2023-10-14 03:04:01+00:00,97.0,4.57,118.0,7.76,12.41,47.59359,-54.27349
2023-10-14 03:14:01+00:00,110.0,6.29,123.0,11.64,12.33,47.59359,-54.27349
2023-10-14 03:24:01+00:00,100.0,5.16,127.0,9.6,12.33,47.59359,-54.27349
2023-10-14 03:34:01+00:00,96.0,5.37,84.0,9.11,12.33,47.59359,-54.27349
2023-10-14 03:44:01+00:00,105.0,6.04,131.0,9.84,12.33,47.59359,-54.27349
2023-10-14 03:54:01+00:00,99.0,4.81,76.0,9.35,12.33,47.59359,-54.27349
2023-10-14 04:04:01+00:00,119.0,6.39,130.0,10.51,12.33,47.59359,-54.27349
2023-10-14 04:14:01+00:00,106.0,5.27,127.0,10.08,12.33,47.59359,-54.27349
2023-10-14 04:24:01+00:00,108.0,7.31,102.0,11.19,12.33,47.59359,-54.27349
2023-10-14 04:34:01+00:00,119.0,9.34,131.0,12.26,12.33,47.59359,-54.27349
2023-10-14 04:44:01+00:00,118.0,7.06,128.0,11.25,12.33,47.59359,-54.27349
2023-10-14 04:54:01+00:00,120.0,7.91,119.0,10.92,12.33,47.59359,-54.27349
2023-10-14 05:04:01+00:00,122.0,9.21,126.0,11.51,12.33,47.59359,-54.27349
2023-10-14 05:14:01+00:00,115.0,6.8,127.0,11.19,12.33,47.59359,-54.27349
2023-10-14 05:24:01+00:00,121.0,8.44,121.0,11.9,12.33,47.59359,-54.27349
2023-10-14 05:34:01+00:00,118.0,6.04,102.0,11.41,12.33,47.59359,-54.27349
2023-10-14 05:44:01+00:00,119.0,9.43,131.0,12.47,12.33,47.59359,-54.27349
2023-10-14 05:54:01+00:00,125.0,10.51,125.0,12.75,12.33,47.59359,-54.27349
2023-10-14 06:04:01+00:00,123.0,8.82,127.0,10.63,12.33,47.59359,-54.27349
2023-10-14 06:14:01+00:00,123.0,8.04,127.0,9.94,12.33,47.59359,-54.27349
2023-10-14 06:24:01+00:00,138.0,7.31,141.0,9.37,12.33,47.59359,-54.27349
2023-10-14 06:34:01+00:00,138.0,4.62,142.0,6.31,12.33,47.59359,-54.27349
2023-10-14 06:44:01+00:00,157.0,3.46,170.0,4.5,12.33,47.59359,-54.27349
2023-10-14 06:54:01+00:00,129.0,5.52,129.0,6.63,12.33,47.59359,-54.27349
2023-10-14 07:04:01+00:00,118.0,5.08,131.0,6.69,12.33,47.59359,-54.27349
2023-10-14 07:14:01+00:00,102.0,4.67,85.0,9.18,12.25,47.59359,-54.27349
2023-10-14 07:24:01+00:00,120.0,5.3,111.0,7.08,12.25,47.59359,-54.27349
2023-10-14 07:34:01+00:00,123.0,6.02,126.0,7.87,12.25,47.59359,-54.27349
2023-10-14 07:44:01+00:00,107.0,3.01,121.0,5.48,12.25,47.59359,-54.27349
2023-10-14 07:54:01+00:00,117.0,3.83,136.0,5.82,12.25,47.59359,-54.27349
2023-10-14 08:04:01+00:00,120.0,4.6,123.0,5.83,12.25,47.59359,-54.27349
2023-10-14 08:14:01+00:00,128.0,5.86,133.0,7.14,12.17,47.59359,-54.27349
2023-10-14 08:24:01+00:00,128.0,4.49,128.0,5.1,12.17,47.59359,-54.27349
2023-10-14 08:34:01+00:00,76.0,2.27,58.0,4.26,12.17,47.59359,-54.27349
2023-10-14 08:44:01+00:00,82.0,2.77,78.0,3.75,12.17,47.59359,-54.27349
2023-10-14 08:54:01+00:00,70.0,3.52,75.0,4.24,12.17,47.59359,-54.27349
2023-10-14 09:04:01+00:00,72.0,3.16,50.0,4.24,12.17,47.59359,-54.27349
2023-10-14 09:14:01+00:00,74.0,3.42,72.0,4.78,12.17,47.59359,-54.27349
2023-10-14 09:24:01+00:00,78.0,3.34,88.0,4.48,12.17,47.59359,-54.27349
2023-10-14 09:34:01+00:00,94.0,2.7,117.0,4.54,12.17,47.59359,-54.27349
2023-10-14 09:44:01+00:00,105.0,3.21,105.0,4.53,12.17,47.59359,-54.27349
2023-10-14 09:54:01+00:00,124.0,3.46,130.0,4.13,12.17,47.59359,-54.27349
2023-10-14 10:04:01+00:00,98.0,1.19,107.0,2.21,12.17,47.59359,-54.27349
2023-10-14 10:14:00+00:00,99.0,1.94,73.0,2.73,12.17,47.59359,-54.27349
2023-10-14 10:24:00+00:00,117.0,1.3,127.0,1.98,12.17,47.59359,-54.27349
2023-10-14 10:34:00+00:00,74.0,1.57,81.0,2.4,12.17,47.59359,-54.27349
2023-10-14 10:44:00+00:00,255.0,2.87,255.0,3.22,12.17,47.59359,-54.27349
2023-10-14 10:54:00+00:00,259.0,4.12,251.0,6.13,12.17,47.59359,-54.27349
2023-10-14 11:04:00+00:00,315.0,0.01,276.0,0.0,12.17,47.59359,-54.27349
2023-10-14 11:14:01+00:00,315.0,0.01,276.0,0.0,12.17,47.59359,-54.27349
2023-10-14 11:24:01+00:00,315.0,0.01,276.0,0.0,12.17,47.59359,-54.27349
2023-10-14 11:34:01+00:00,315.0,0.01,276.0,0.0,12.17,47.59359,-54.27349
2023-10-14 11:44:01+00:00,315.0,0.01,276.0,0.0,12.17,47.59359,-54.27349
2023-10-14 11:54:01+00:00,315.0,0.01,276.0,0.0,12.17,47.59359,-54.27349
2023-10-14 12:04:01+00:00,42.0,3.2,46.0,3.43,12.17,47.59359,-54.27349
2023-10-14 12:14:01+00:00,51.0,3.41,51.0,3.42,12.33,47.59359,-54.27349
2023-10-14 12:24:01+00:00,315.0,0.01,51.0,0.0,12.33,47.59359,-54.27349
2023-10-14 12:34:01+00:00,315.0,0.01,51.0,0.0,12.33,47.59359,-54.27349
2023-10-14 12:44:01+00:00,315.0,0.01,48.0,0.0,12.33,47.59359,-54.27349
2023-10-14 12:54:01+00:00,63.0,2.76,61.0,2.96,12.33,47.59359,-54.27349
2023-10-14 13:04:01+00:00,37.0,1.56,57.0,2.68,12.33,47.59359,-54.27349
2023-10-14 13:14:00+00:00,320.0,0.76,292.0,1.98,12.49,47.59359,-54.27349
2023-10-14 13:24:00+00:00,273.0,0.75,272.0,3.75,12.49,47.59359,-54.27349
2023-10-14 13:34:00+00:00,205.0,2.39,236.0,4.4,12.49,47.59359,-54.27349
2023-10-14 13:44:00+00:00,198.0,4.39,201.0,4.57,12.49,47.59359,-54.27349
2023-10-14 13:54:00+00:00,180.0,4.23,144.0,5.33,12.49,47.59359,-54.27349
2023-10-14 14:04:00+00:00,191.0,5.54,195.0,6.02,12.49,47.59359,-54.27349
2023-10-14 14:14:01+00:00,198.0,5.74,199.0,6.15,12.97,47.59359,-54.27349
2023-10-14 14:24:01+00:00,191.0,5.02,196.0,5.87,12.97,47.59359,-54.27349
2023-10-14 14:34:01+00:00,174.0,6.09,176.0,6.45,12.97,47.59359,-54.27349
2023-10-14 14:44:01+00:00,176.0,5.53,175.0,5.95,12.97,47.59359,-54.27349
2023-10-14 14:54:01+00:00,197.0,3.39,197.0,3.79,12.97,47.59359,-54.27349
2023-10-14 15:04:01+00:00,217.0,1.59,228.0,1.99,12.97,47.59359,-54.27349
2023-10-14 15:14:01+00:00,202.0,1.57,198.0,2.54,12.97,47.59359,-54.27349
2023-10-14 15:24:01+00:00,195.0,2.08,198.0,2.47,12.97,47.59359,-54.27349
2023-10-14 15:34:01+00:00,170.0,3.52,172.0,3.84,12.97,47.59359,-54.27349
2023-10-14 15:44:01+00:00,173.0,4.76,190.0,5.71,12.97,47.59359,-54.27349
2023-10-14 15:54:01+00:00,173.0,4.81,168.0,5.23,12.97,47.59359,-54.27349
2023-10-14 16:04:01+00:00,195.0,5.28,203.0,5.87,12.97,47.59359,-54.27349
2023-10-14 16:14:00+00:00,174.0,4.48,182.0,5.87,12.81,47.59359,-54.27349
2023-10-14 16:24:00+00:00,181.0,3.59,185.0,3.95,12.81,47.59359,-54.27349
2023-10-14 16:34:00+00:00,189.0,3.89,199.0,4.6,12.81,47.59359,-54.27349
2023-10-14 16:44:00+00:00,184.0,3.5,195.0,4.18,12.81,47.59359,-54.27349
2023-10-14 16:54:00+00:00,171.0,3.07,133.0,4.34,12.81,47.59359,-54.27349
2023-10-14 17:04:00+00:00,166.0,5.1,148.0,6.28,12.81,47.59359,-54.27349
2023-10-14 17:14:00+00:00,176.0,6.48,149.0,7.57,12.73,47.59359,-54.27349
2023-10-14 17:24:00+00:00,151.0,5.99,148.0,6.5,12.73,47.59359,-54.27349
2023-10-14 17:34:00+00:00,142.0,6.42,146.0,7.12,12.73,47.59359,-54.27349
2023-10-14 17:44:00+00:00,137.0,5.05,141.0,6.25,12.73,47.59359,-54.27349
2023-10-14 17:54:00+00:00,136.0,5.14,141.0,6.18,12.73,47.59359,-54.27349
2023-10-14 18:04:00+00:00,148.0,4.8,142.0,5.81,12.73,47.59359,-54.27349
2023-10-14 18:14:01+00:00,154.0,5.71,146.0,7.01,12.73,47.59359,-54.27349
2023-10-14 18:24:01+00:00,134.0,5.14,123.0,6.13,12.73,47.59359,-54.27349
2023-10-14 18:34:01+00:00,138.0,5.58,135.0,6.3,12.73,47.59359,-54.27349
2023-10-14 18:44:01+00:00,157.0,4.4,147.0,5.34,12.73,47.59359,-54.27349
2023-10-14 18:54:01+00:00,139.0,5.58,140.0,6.88,12.73,47.59359,-54.27349
2023-10-14 19:04:01+00:00,138.0,5.94,138.0,6.64,12.73,47.59359,-54.27349
2023-10-14 19:14:01+00:00,143.0,7.46,144.0,8.26,12.65,47.59359,-54.27349
2023-10-14 19:24:01+00:00,151.0,8.92,143.0,10.96,12.65,47.59359,-54.27349
2023-10-14 19:34:01+00:00,152.0,7.88,156.0,8.47,12.65,47.59359,-54.27349
2023-10-14 19:44:01+00:00,161.0,9.64,167.0,11.06,12.65,47.59359,-54.27349
2023-10-14 19:54:01+00:00,166.0,9.59,163.0,11.01,12.65,47.59359,-54.27349
2023-10-14 20:04:01+00:00,170.0,10.24,165.0,12.35,12.65,47.59359,-54.27349
2023-10-14 20:14:00+00:00,175.0,10.35,174.0,11.58,12.57,47.59359,-54.27349
2023-10-14 20:24:00+00:00,173.0,9.73,179.0,10.86,12.57,47.59359,-54.27349
2023-10-14 20:34:00+00:00,176.0,8.75,175.0,9.8,12.57,47.59359,-54.27349
2023-10-14 20:44:00+00:00,175.0,8.41,174.0,8.97,12.57,47.59359,-54.27349
2023-10-14 20:54:00+00:00,171.0,7.39,173.0,8.14,12.57,47.59359,-54.27349
2023-10-14 21:04:00+00:00,175.0,7.23,176.0,7.87,12.57,47.59359,-54.27349
2023-10-14 21:14:01+00:00,181.0,6.52,179.0,7.3,12.41,47.59359,-54.27349
2023-10-14 21:24:01+00:00,177.0,5.73,180.0,6.31,12.41,47.59359,-54.27349
2023-10-14 21:34:01+00:00,166.0,5.3,169.0,7.25,12.41,47.59359,-54.27349
2023-10-14 21:44:01+00:00,166.0,4.94,166.0,5.46,12.41,47.59359,-54.27349
2023-10-14 21:54:01+00:00,175.0,4.7,173.0,5.25,12.41,47.59359,-54.27349
2023-10-14 22:04:01+00:00,171.0,4.4,171.0,4.99,12.41,47.59359,-54.27349
2023-10-14 22:14:01+00:00,173.0,4.8,171.0,5.05,12.33,47.59359,-54.27349
2023-10-14 22:24:01+00:00,170.0,4.34,172.0,4.76,12.33,47.59359,-54.27349
2023-10-14 22:34:01+00:00,177.0,3.68,172.0,4.25,12.33,47.59359,-54.27349
2023-10-14 22:44:01+00:00,167.0,3.47,168.0,3.92,12.33,47.59359,-54.27349
2023-10-14 22:54:01+00:00,168.0,5.36,167.0,5.79,12.33,47.59359,-54.27349
2023-10-14 23:04:01+00:00,176.0,4.07,176.0,4.28,12.33,47.59359,-54.27349
2023-10-14 23:14:01+00:00,177.0,3.38,176.0,3.54,12.25,47.59359,-54.27349
2023-10-14 23:24:01+00:00,172.0,2.5,174.0,2.72,12.25,47.59359,-54.27349
2023-10-14 23:34:01+00:00,183.0,1.97,188.0,2.62,12.25,47.59359,-54.27349
2023-10-14 23:44:01+00:00,192.0,1.7,197.0,2.09,12.25,47.59359,-54.27349
2023-10-14 23:54:01+00:00,177.0,1.44,174.0,1.91,12.25,47.59359,-54.27349
